Location: Nowy Sacz
(49.6330°N, 20.7170°E)
Time: 14:55:09
(UTC+01:00)

Envisat - Pass Details

Date: 21 September 2023
Orbit: 762 x 764 km, 98.3° (Epoch: 30 November)

Event Time Altitude Azimuth Distance (km) Brightness Sun altitude
Rises 03:55:28 0° 18° (NNE) 3,244 7.0 -23.2°
Reaches altitude 10° 03:57:53 10° 25° (NNE) 2,313 6.2 -22.9°
Maximum altitude 04:02:48 46° 99° (E) 1,019 3.9 -22.2°
Enters shadow 04:07:24 11° 171° (S) 2,203 5.2 -21.5°
